星链-5019 (STARLINK-5019 )

导读

STARLINK-5019是美国SpaceX公司星链(Starlink)星座的卫星,属于星链v1.5卫星平台,于2023年1月31日发射升空。它运行在近地轨道,近地点高度约558公里,远地点约560公里,轨道倾角约43度。作为全球卫星互联网星座的组成部分,它可为偏远地区提供高速低延迟宽带服务,截至目前仍在轨正常工作,支撑星链全球网络服务覆盖。

Basic Information
目录编号:
55407
目录名称:
STARLINK-5019
国际标识:
2023-014S
轨道中心:
EARTH
卫星名称:
星链-5019
卫星全名:
星链-5019 (STARLINK-5019 )
卫星状态:
在轨 (已飞行1233 天)
发射日期:
2023-01-31 UTC
国别 :
美国 (US)
星等 :
--
Orbit Information
数据来源 国际轨道数据 AOE轨道数据
星历时间 2026-06-17T10:21:17+0800
6小时前
查看轨道信息
2026-06-15T23:00:00+0800
1天前
查看轨道信息
半长轴 6950.201km 6950.18km
偏心率 0.000383 0.0003739
轨道倾角 69.999° 69.998°
近地点辐角 268.932° 271.891°
升交点赤经 173.902° 177.611°
平近点角 91.140° 64.418°
近地点 569.402km 569.444km
远地点 574.726km 574.642km
周期 96.107分钟 96.107分钟
每日圈数 14.983276 14.983344
Detailed Information
固有亮度:
5
最大亮度:
2.5
卫星平台:
Starlink v1.5
覆盖范围:
全球
运营商:
太空探索技术公司
运营商所在国:
美国
制造商(研发单位):
太空探索技术公司
制造商所在国:
美国
使用方式:
暂无
Satellite Introduction
星链(Starlink)计划是由太空探索技术公司(SpaceX)提出的一个巨型低轨卫星互联网星座项目,计划在2019年至2024年间在太空搭建由约1.2万颗卫星组成的“星链”网络,其中1584颗将部署在地球上空550千米处的近地轨道,并从2020年开始工作。该卫星仍在工作。
2D Orbit Map
3D Orbit Map
Orbit Altitude Analysis Chart
Orbit Inclination Analysis Chart
Orbit Comprehensive Analysis Chart
View Comprehensive Chart